Masset, Canada
Current Conditions -  °F | °C
As of 10:29 PM on Wednesday 28 Jan 2015 (Local Time) from CYZP Reporting Station
Light Rain Light Rain  
Wind Chill: 38°   Ceiling: 7500
Heat Index: 46°   Visibility: 9mi
Dew Point: 45°   Wind: 28mph
Humidity: 93%   Direction: 140°SE
Pressure: 30.11"   Gusts: NA
Location:  54.02°N, 132.15°W
Report Text: CYZP 290629Z AUTO 14024KT 9SM -RA FEW036 OVC075 08/07 A3011 RMK SLP197
Loading
Personal Weather Stations






























Interactive Weather Map New forecast layout! Learn more

10-Day Weather Forecast

Advertisements
Track Severe Weather on mobile